Location: Buckland
(65.9785°N, 161.1281°W)
Time: 04:30:10
(UTC+00:00)

Transit 4A - Pass Details

Date: 02 December 2020
Orbit: 864 x 980 km, 66.8° (Epoch: 26 January)

Event Time Altitude Azimuth Distance (km) Brightness Sun altitude
Rises 01:37:37 0° 302° (WNW) 3,695 11.2 -4.6°
Reaches altitude 10° 01:40:16 10° 297° (WNW) 2,742 10.6 -4.7°
Maximum altitude 01:46:24 49° 225° (SW) 1,238 9.2 -5.2°
Drops below altitude 10° 01:52:25 10° 153° (SSE) 2,690 10.6 -5.6°
Sets 01:55:00 0° 148° (SSE) 3,618 11.2 -5.8°
